Theta_e
356 356 354 352 354 356 356 356 356 355 354 355 354 353 353 353 354 355 355 355 355 355 355 355 355 355 356 357 357 357 356 357 358 358 357 356 357 357 356 354 351 349
358 357 355 354 356 357 356 357 358 356 355 355 355 354 353 353 354 355 354 354 355 355 356 356 357 356 356 356 357 357 357 357 358 357 356 356 357 356 355 353 351 348
356 356 357 357 358 359 357 356 358 358 357 355 355 354 354 354 354 354 354 354 355 356 357 356 355 354 356 356 355 355 357 357 357 357 357 357 357 355 354 355 354 351
353 356 359 358 359 360 358 357 357 358 357 357 356 355 355 354 355 354 355 356 355 356 357 355 354 353 355 359 356 353 355 357 355 356 359 359 358 356 355 356 355 353
355 357 359 358 357 358 357 356 357 357 357 358 357 356 355 355 356 355 356 356 355 355 357 355 356 355 353 357 358 354 356 358 353 353 358 359 358 356 354 356 355 354
358 358 357 358 357 357 357 356 356 357 356 357 357 356 356 356 356 355 356 357 355 356 357 355 358 358 353 355 358 354 356 359 356 354 356 356 355 355 355 357 356 355
360 359 357 358 357 357 357 355 356 357 356 356 356 355 356 356 356 355 355 356 354 355 356 355 356 358 356 356 357 354 355 359 359 357 358 357 357 357 357 357 357 357
360 359 358 358 357 356 356 355 355 355 355 356 356 355 355 355 356 356 356 355 354 353 355 356 355 356 357 357 356 355 354 356 357 358 359 359 359 359 358 358 358 358
359 359 359 359 357 356 355 356 355 355 354 355 355 355 355 355 356 357 357 356 354 353 353 355 355 355 356 357 357 356 356 355 355 358 359 358 357 358 358 358 357 356
357 358 359 359 359 356 356 356 356 356 355 354 355 355 355 356 356 356 357 356 355 353 351 354 356 355 355 356 357 358 358 358 357 358 359 358 358 358 358 358 358 358
357 357 358 359 358 357 357 357 356 356 356 355 355 355 355 356 356 355 356 356 355 355 353 354 355 356 356 356 358 358 359 359 359 358 358 358 359 359 360 359 359 359
356 356 357 357 357 357 357 357 356 356 356 356 356 355 355 356 355 355 356 356 356 356 356 356 356 358 358 357 358 358 358 359 360 359 359 358 358 359 359 359 358 358
354 355 355 355 356 356 356 356 356 356 356 355 356 355 355 355 355 354 355 356 357 357 357 358 359 359 360 358 358 358 358 359 358 358 358 358 358 359 358 358 357 357
352 353 353 353 354 353 354 355 354 355 356 355 356 356 355 355 354 355 355 356 356 356 358 359 359 360 360 359 359 358 359 359 358 358 358 357 358 358 357 357 356 355
351 352 351 350 351 351 351 351 352 352 354 355 356 356 355 355 354 354 355 355 356 357 357 358 359 360 359 359 359 359 359 359 359 358 357 357 357 357 356 355 354 355
351 352 351 350 351 351 349 348 349 350 351 353 355 355 355 355 354 353 353 354 356 357 357 358 359 359 359 360 360 360 360 359 359 359 359 358 357 356 354 353 353 354
352 353 352 351 352 353 350 347 348 350 350 352 353 354 354 354 354 353 352 352 354 356 357 358 358 358 358 359 359 359 359 359 360 360 359 357 355 352 351 351 352 353
353 353 352 350 350 352 352 350 350 351 351 352 353 354 353 352 353 352 351 351 352 355 357 357 357 357 356 356 356 356 358 360 360 359 358 356 354 352 351 352 353 353
354 353 352 351 349 350 351 351 350 351 351 351 353 353 351 350 351 352 351 351 351 353 357 356 355 355 354 354 353 353 355 359 359 357 356 354 352 352 352 353 353 353
355 354 352 350 349 349 351 352 350 351 352 352 352 352 351 350 349 350 350 350 349 351 353 355 354 353 353 352 352 353 354 356 357 356 355 353 351 351 351 353 352 351
357 356 355 353 351 349 351 353 353 353 354 354 353 353 353 352 350 349 350 350 350 350 351 353 353 352 352 351 351 352 353 354 355 354 353 352 352 352 353 353 353 353
356 355 355 355 354 353 351 352 355 356 355 356 355 354 355 354 351 350 350 349 350 350 350 351 351 350 351 351 351 352 352 352 352 352 353 353 354 353 353 353 354 354
353 355 355 353 353 355 354 354 356 356 356 356 355 356 356 355 353 352 350 349 349 349 350 350 350 350 351 351 351 351 351 351 353 354 356 356 354 353 353 353 353 353
351 354 354 352 352 353 353 354 356 356 357 357 356 357 356 353 352 352 350 348 347 347 347 348 349 350 350 351 351 350 350 351 354 356 357 356 355 353 352 351 350 349
350 352 352 350 351 351 350 353 355 355 356 357 356 356 353 349 350 350 348 345 344 344 344 344 346 347 348 349 350 350 349 351 354 355 355 355 354 352 351 349 347 345
349 350 350 351 351 349 348 350 353 353 354 355 355 352 347 344 346 346 344 341 339 339 339 339 340 342 344 346 348 349 349 351 352 354 354 352 352 351 349 347 344 342
Wind_Speed
20 19 18 18 19 18 17 16 18 18 18 18 17 16 16 15 15 15 14 13 12 11 11 11 10 10 10 7 8 11 9 7 7 6 5 4 3 2 1 2 3 5
21 20 19 19 19 18 18 18 18 17 17 17 16 15 14 14 15 15 15 15 13 13 12 11 12 12 11 9 9 10 9 7 7 6 5 4 4 3 2 2 2 3
21 21 20 20 19 18 18 19 18 17 17 16 15 15 14 14 15 15 16 16 14 13 13 11 12 13 12 9 8 9 9 7 7 6 5 5 5 4 4 3 4 3
22 21 20 20 19 18 19 19 18 17 17 16 15 15 15 14 14 14 16 16 13 14 14 11 10 12 12 10 9 10 9 7 7 6 6 7 6 5 5 4 4 3
22 21 20 20 19 18 19 19 18 18 17 15 15 16 16 16 15 15 15 14 12 14 14 11 10 11 11 11 10 10 9 7 7 7 7 8 8 6 5 5 5 4
22 22 21 20 19 18 19 19 18 17 18 16 15 16 16 17 17 16 16 15 14 13 13 13 12 11 11 11 10 10 10 8 7 9 9 8 8 7 5 5 6 6
22 22 21 20 20 19 19 19 18 17 18 18 16 17 15 16 18 17 16 17 16 15 14 13 13 13 12 12 11 10 11 9 8 9 11 8 6 7 7 6 6 5
23 22 22 19 19 20 20 19 19 17 17 17 17 17 16 16 17 16 15 16 16 16 15 15 14 13 13 13 12 10 11 11 9 9 11 10 8 8 8 7 7 6
22 21 21 19 17 20 20 19 19 18 17 16 18 18 17 16 17 17 16 15 15 15 14 15 16 14 13 14 13 11 10 10 11 10 11 10 9 8 8 7 7 6
23 21 21 19 18 19 19 18 18 18 17 16 17 18 18 18 16 16 17 16 16 16 14 14 15 16 14 13 12 11 10 10 10 9 9 9 8 8 7 7 7 8
23 22 21 20 19 19 18 18 17 17 17 16 15 16 17 18 17 15 17 18 17 16 14 14 14 14 15 14 12 12 11 11 10 9 8 9 9 9 8 8 8 9
23 22 22 21 20 18 18 18 18 17 18 16 15 15 14 15 16 15 15 17 17 16 14 15 14 13 13 14 13 11 11 10 10 10 9 9 9 9 9 9 8 9
24 22 21 20 20 19 18 18 18 17 18 17 15 15 14 14 14 15 15 16 17 15 14 14 14 13 12 13 12 11 10 10 10 10 10 10 10 11 11 10 9 9
24 22 21 20 19 19 18 19 19 18 18 19 16 14 15 15 15 14 14 16 17 16 14 13 14 14 13 13 12 12 11 10 11 10 11 11 11 11 11 10 10 9
22 21 21 20 19 20 19 19 20 21 20 20 19 17 15 15 16 14 13 14 16 16 15 14 13 14 15 14 13 13 12 11 10 9 9 9 9 9 10 10 9 8
21 19 19 19 17 17 20 20 19 21 23 22 22 21 18 16 16 16 15 15 15 16 16 15 14 14 15 15 14 14 13 12 10 8 7 8 8 9 9 9 9 8
20 18 18 19 15 12 17 21 16 15 21 24 23 22 20 18 18 18 18 18 17 17 17 16 15 15 16 16 16 15 14 13 11 9 8 8 8 7 7 7 7 5
20 20 19 20 16 11 11 14 13 13 17 21 21 21 20 18 19 19 18 18 17 16 17 18 17 17 16 16 16 15 14 14 12 10 7 6 5 5 7 8 7 3
20 21 21 21 19 15 11 11 12 13 15 15 16 18 18 15 15 16 14 13 14 13 15 17 17 16 16 15 15 15 15 16 14 11 7 5 5 6 5 3 4 4
21 20 21 21 19 18 15 14 14 13 13 13 13 14 14 12 14 14 11 10 11 12 14 16 16 15 15 15 15 15 16 16 15 12 7 4 5 5 2 2 3 4
20 19 19 19 20 20 18 16 15 13 11 12 12 11 11 9 10 10 8 7 8 11 14 16 16 15 14 15 15 15 14 14 12 9 5 3 3 3 3 4 4 4
18 18 18 18 19 22 22 19 16 13 10 11 12 11 9 8 8 8 7 7 7 10 13 14 15 14 14 13 14 13 12 10 9 8 7 6 5 4 5 5 5 4
15 19 21 19 19 21 23 20 16 11 10 12 13 10 7 7 9 9 8 8 9 11 12 13 14 14 13 13 12 11 11 9 9 9 9 8 7 6 5 6 6 4
15 21 24 21 19 18 16 15 13 11 13 14 14 12 9 6 8 10 10 10 11 12 12 12 13 13 13 12 12 11 11 11 11 11 10 9 8 7 6 6 6 5
13 20 21 20 18 15 11 11 12 14 15 16 17 16 12 9 11 13 13 13 13 13 12 11 11 12 11 11 12 12 12 13 13 12 12 11 10 8 7 5 5 4
11 15 16 16 14 12 10 11 12 13 14 16 17 15 13 14 16 16 16 15 13 13 12 10 9 10 9 9 11 12 13 14 13 13 13 13 11 10 8 7 6 5
Wind_Direction
184 181 179 180 180 182 184 183 187 191 187 189 197 196 195 195 190 194 198 191 191 194 185 182 188 186 179 179 178 175 175 176 173 175 180 178 181 186 353 342 334 341
185 185 183 180 179 184 187 186 189 194 193 195 200 198 197 195 194 200 200 191 189 190 188 189 194 190 182 183 186 177 178 185 177 177 176 173 190 199 158 170 253 314
185 184 183 182 181 185 188 187 189 194 195 199 200 196 198 196 196 204 200 191 189 191 196 202 201 196 186 187 197 185 181 188 181 182 188 184 199 208 191 205 245 250
186 185 184 183 184 187 189 188 189 192 193 198 200 195 197 196 192 196 193 189 192 195 201 208 203 195 187 190 204 193 189 197 189 192 205 198 206 219 216 238 266 261
187 188 187 186 189 191 191 190 189 192 191 193 198 195 194 195 192 191 188 188 196 201 202 202 199 196 188 192 209 199 192 209 204 199 212 212 213 219 222 246 258 258
188 190 190 189 190 192 191 189 187 192 194 191 195 197 195 196 196 195 192 193 199 203 202 197 199 206 196 193 213 207 191 211 225 215 223 229 223 223 232 257 255 242
190 191 192 193 194 194 191 190 190 193 195 194 195 196 194 193 192 194 197 199 201 200 198 198 201 208 205 200 211 211 197 209 226 214 218 232 238 237 244 258 259 242
192 192 194 197 198 195 192 193 195 196 196 193 192 193 195 193 191 195 200 201 200 197 198 206 204 199 207 210 212 214 208 213 220 210 211 222 230 239 248 256 260 254
192 194 195 197 197 193 193 194 194 197 197 193 191 192 196 198 194 196 201 200 200 201 206 214 206 196 205 213 211 216 218 219 224 225 225 228 233 237 243 254 260 261
191 194 195 197 198 195 196 197 193 195 197 197 194 190 193 199 197 195 199 199 200 205 209 208 200 196 204 210 211 218 224 225 228 234 233 229 233 239 241 249 257 260
189 193 194 197 200 199 199 199 195 195 198 199 196 190 189 195 197 197 200 199 200 204 206 206 205 206 208 208 212 221 225 228 232 235 236 231 234 243 247 251 256 258
192 194 194 196 200 201 202 202 199 198 198 198 202 202 194 191 196 202 203 198 200 204 207 212 214 214 210 207 212 222 225 227 229 231 238 239 240 247 251 254 260 262
195 196 197 198 201 203 203 202 201 198 196 198 204 206 202 195 193 201 206 202 201 204 210 215 213 211 213 213 214 221 224 225 227 233 240 241 244 248 250 256 263 269
195 196 199 202 204 205 206 206 202 200 198 199 202 206 208 205 196 196 205 206 204 207 209 212 213 212 216 219 218 220 224 226 227 236 244 248 253 255 253 260 266 269
194 196 200 204 207 207 209 210 205 203 202 200 201 206 210 208 204 204 206 205 207 212 212 212 215 214 215 220 221 220 223 228 232 242 251 252 258 264 268 273 272 275
195 197 197 203 209 207 208 213 211 206 207 204 201 206 207 203 205 208 207 205 208 211 211 211 213 215 217 221 222 221 226 233 237 241 246 249 257 270 279 279 274 282
196 202 201 202 206 202 206 213 211 203 207 208 205 205 205 202 206 211 210 210 211 210 209 208 208 212 217 221 223 225 230 233 230 229 241 252 258 272 286 285 283 287
193 202 207 211 212 206 203 204 190 173 190 204 206 207 208 206 207 211 212 213 214 209 204 204 207 211 217 222 225 225 228 229 224 224 242 259 272 296 301 289 277 250
195 202 208 212 213 211 206 201 191 175 174 183 191 200 202 191 181 185 192 200 206 203 200 203 207 212 217 223 225 226 227 226 219 217 231 259 289 304 305 272 237 200
204 208 211 213 213 212 209 205 204 197 184 178 179 188 189 172 161 167 171 174 183 195 205 209 212 216 219 222 224 225 224 222 218 216 225 257 273 271 245 177 178 183
215 213 213 215 216 217 217 214 211 206 195 189 189 193 193 180 170 173 173 163 163 183 202 210 215 218 219 218 221 222 219 217 216 212 209 210 202 180 154 150 156 158
226 221 219 219 219 219 219 219 215 207 197 199 205 207 204 196 189 184 181 178 174 180 193 202 208 213 214 213 215 216 211 205 198 193 194 189 170 152 142 145 149 155
228 225 223 221 220 220 218 218 217 205 197 206 210 207 201 193 192 190 187 187 185 185 192 196 197 203 208 207 206 205 198 186 175 177 181 174 160 151 149 148 147 154
227 225 223 222 223 220 213 211 206 187 182 193 199 203 206 191 178 176 175 178 180 181 187 192 191 196 203 206 205 201 190 179 176 177 173 167 160 153 147 146 141 136
222 226 227 227 226 218 201 191 187 178 179 188 196 203 203 180 168 168 164 165 171 173 176 181 182 185 191 196 198 197 191 185 184 181 171 161 158 155 149 142 130 115
207 221 227 228 223 212 193 178 176 179 188 193 193 190 174 157 159 162 155 152 157 159 157 157 161 164 168 179 184 184 184 186 187 184 173 161 155 153 149 139 122 99